COLIBRI-S (RS67S)

Last updated on Fri May 09 2025 00:03:04 GMT+0000 (Coordinated Universal Time)

1 61746U 24199M 25128.53821257 .00014037 00000+0 45878-3 0 9999 2 61746 97.3622 357.4017 0010624 301.8112 58.2094 15.31785923 75184
UTC large
Height (km)
Speed (km/s)
/
Latitude / Longitude
Inclination (degrees)
Orbital Period (minutes)
Azimuth
Elevation
Range (km)
Doppler Factor

Next 0 passes for location: London (51.5072 / 0.1276)

Sorry there are no passes over London.